User: anonymous   Login
Location: Bambrugge
(50.9212°N, 3.9299°E)
Time: 11:41:28
(UTC+00:00)
Language:

GP-B - Orbit

View from above orbital plane
View from above orbital plane
View from above satellite
View from above satellite

Ground track
Ground track

The orbit data is extracted from the following two-line orbital elements,

1 28230U 04014A   24204.13948181  .00001866  00000-0  23924-3 0  9995
2 28230  89.8257  64.3671 0001933  92.3113 267.8333 14.80948129 92209
Epoch (UTC): 22 July 2024 03:20:51
Eccentricity: 0.0001933
inclination: 89.8257°
perigee height: 625 km
apogee height: 627 km
right ascension of ascending node: 64.3671°
argument of perigee: 92.3113°
revolutions per day: 14.80948129
mean anomaly at epoch: 267.8333°
orbit number at epoch: 9220

The dashed part of the orbit path shows where the satellite is in the earth's shadow,  

DLR